owner,sensor,date,latitude,longitude,vertical_datum,wind_speed,wind_to_direction,wind_speed_of_gust,qcFlag 
WAVCIS,ioos:station:WAVCIS:CSI15:1,2008-08-01T00:00:00Z,28.8332,-90.8320,10.0,1.338,291.0,,'11111222,11111222,99999999' 
WAVCIS,ioos:station:WAVCIS:CSI15:1,2008-08-01T01:00:00Z,28.8332,-90.8320,10.0,2.838,339.0,,'11111222,11111222,99999999' 
WAVCIS,ioos:station:WAVCIS:CSI15:1,2008-08-01T02:00:00Z,28.8332,-90.8320,10.0,0.259,75.0,,'11111222,11111222,99999999' 
WAVCIS,ioos:station:WAVCIS:CSI15:1,2008-08-01T03:00:00Z,28.8332,-90.8320,10.0,0.598,92.0,,'11111222,11111222,99999999' 
WAVCIS,ioos:station:WAVCIS:CSI15:1,2008-08-01T04:00:00Z,28.8332,-90.8320,10.0,0.653,135.0,,'11111222,11111222,99999999' 
WAVCIS,ioos:station:WAVCIS:CSI15:1,2008-08-01T05:00:00Z,28.8332,-90.8320,10.0,4.804,192.0,,'11111222,11111222,99999999' 
WAVCIS,ioos:station:WAVCIS:CSI15:1,2008-08-01T06:00:00Z,28.8332,-90.8320,10.0,6.135,188.0,,'11111222,11111222,99999999' 
WAVCIS,ioos:station:WAVCIS:CSI15:1,2008-08-01T07:00:00Z,28.8332,-90.8320,10.0,7.39,190.0,,'11111222,11111222,99999999' 
WAVCIS,ioos:station:WAVCIS:CSI15:1,2008-08-01T08:00:00Z,28.8332,-90.8320,10.0,7.6,195.0,,'11111222,11111222,99999999' 
WAVCIS,ioos:station:WAVCIS:CSI15:1,2008-08-01T09:00:00Z,28.8332,-90.8320,10.0,7.34,192.0,,'11111222,11111222,99999999' 
WAVCIS,ioos:station:WAVCIS:CSI15:1,2008-08-01T10:00:00Z,28.8332,-90.8320,10.0,6.441,199.0,,'11111222,11111222,99999999' 
WAVCIS,ioos:station:WAVCIS:CSI15:1,2008-08-01T11:00:00Z,28.8332,-90.8320,10.0,6.421,201.0,,'11111222,11111222,99999999' 
WAVCIS,ioos:station:WAVCIS:CSI15:1,2008-08-01T12:00:00Z,28.8332,-90.8320,10.0,7.28,198.0,,'11111222,11111222,99999999' 
WAVCIS,ioos:station:WAVCIS:CSI15:1,2008-08-01T13:00:00Z,28.8332,-90.8320,10.0,7.6,200.0,,'11111222,11111222,99999999' 
WAVCIS,ioos:station:WAVCIS:CSI15:1,2008-08-01T14:00:00Z,28.8332,-90.8320,10.0,7.66,201.0,,'11111222,11111222,99999999' 
WAVCIS,ioos:station:WAVCIS:CSI15:1,2008-08-01T15:00:00Z,28.8332,-90.8320,10.0,7.34,211.0,,'11111222,11111222,99999999' 
WAVCIS,ioos:station:WAVCIS:CSI15:1,2008-08-01T16:00:00Z,28.8332,-90.8320,10.0,7.59,208.0,,'11111222,11111222,99999999' 
WAVCIS,ioos:station:WAVCIS:CSI15:1,2008-08-01T17:00:00Z,28.8332,-90.8320,10.0,6.468,207.0,,'11111222,11111222,99999999' 
WAVCIS,ioos:station:WAVCIS:CSI15:1,2008-08-01T18:00:00Z,28.8332,-90.8320,10.0,7.43,205.0,,'11111222,11111222,99999999' 
WAVCIS,ioos:station:WAVCIS:CSI15:1,2008-08-01T19:00:00Z,28.8332,-90.8320,10.0,7.1,208.0,,'11111222,11111222,99999999' 
WAVCIS,ioos:station:WAVCIS:CSI15:1,2008-08-01T20:00:00Z,28.8332,-90.8320,10.0,7.2,254.0,,'11111222,11111222,99999999' 
WAVCIS,ioos:station:WAVCIS:CSI15:1,2008-08-01T21:00:00Z,28.8332,-90.8320,10.0,6.156,341.0,,'11111222,11111222,99999999' 
WAVCIS,ioos:station:WAVCIS:CSI15:1,2008-08-01T22:00:00Z,28.8332,-90.8320,10.0,4.196,250.0,,'11111222,11111222,99999999' 
WAVCIS,ioos:station:WAVCIS:CSI15:1,2008-08-01T23:00:00Z,28.8332,-90.8320,10.0,1.146,253.0,,'11111222,11111222,99999999' 
WAVCIS,ioos:station:WAVCIS:CSI15:1,2008-08-02T00:00:00Z,28.8332,-90.8320,10.0,0.378,97.0,,'11111222,11111222,99999999' 
WAVCIS,ioos:station:WAVCIS:CSI15:1,2008-08-02T01:00:00Z,28.8332,-90.8320,10.0,2.015,225.0,,'11111222,11111222,99999999' 
WAVCIS,ioos:station:WAVCIS:CSI15:1,2008-08-02T02:00:00Z,28.8332,-90.8320,10.0,5.085,222.0,,'11111222,11111222,99999999' 
WAVCIS,ioos:station:WAVCIS:CSI15:1,2008-08-02T03:00:00Z,28.8332,-90.8320,10.0,6.029,204.0,,'11111222,11111222,99999999' 
WAVCIS,ioos:station:WAVCIS:CSI15:1,2008-08-02T04:00:00Z,28.8332,-90.8320,10.0,5.039,199.0,,'11111222,11111222,99999999' 
WAVCIS,ioos:station:WAVCIS:CSI15:1,2008-08-02T05:00:00Z,28.8332,-90.8320,10.0,6.089,205.0,,'11111222,11111222,99999999' 
WAVCIS,ioos:station:WAVCIS:CSI15:1,2008-08-02T06:00:00Z,28.8332,-90.8320,10.0,6.26,201.0,,'11111222,11111222,99999999' 
WAVCIS,ioos:station:WAVCIS:CSI15:1,2008-08-02T07:00:00Z,28.8332,-90.8320,10.0,7.0,211.0,,'11111222,11111222,99999999' 
WAVCIS,ioos:station:WAVCIS:CSI15:1,2008-08-02T08:00:00Z,28.8332,-90.8320,10.0,6.106,212.0,,'11111222,11111222,99999999' 
WAVCIS,ioos:station:WAVCIS:CSI15:1,2008-08-02T09:00:00Z,28.8332,-90.8320,10.0,6.185,216.0,,'11111222,11111222,99999999' 
WAVCIS,ioos:station:WAVCIS:CSI15:1,2008-08-02T10:00:00Z,28.8332,-90.8320,10.0,6.315,227.0,,'11111222,11111222,99999999' 
WAVCIS,ioos:station:WAVCIS:CSI15:1,2008-08-02T11:00:00Z,28.8332,-90.8320,10.0,6.969,237.0,,'11111222,11111222,99999999' 
WAVCIS,ioos:station:WAVCIS:CSI15:1,2008-08-02T12:00:00Z,28.8332,-90.8320,10.0,6.217,233.0,,'11111222,11111222,99999999' 
WAVCIS,ioos:station:WAVCIS:CSI15:1,2008-08-02T13:00:00Z,28.8332,-90.8320,10.0,4.949,248.0,,'11111222,11111222,99999999' 
WAVCIS,ioos:station:WAVCIS:CSI15:1,2008-08-02T14:00:00Z,28.8332,-90.8320,10.0,4.432,235.0,,'11111222,11111222,99999999' 
WAVCIS,ioos:station:WAVCIS:CSI15:1,2008-08-02T15:00:00Z,28.8332,-90.8320,10.0,11.4,309.0,,'11111222,11111222,99999999' 
WAVCIS,ioos:station:WAVCIS:CSI15:1,2008-08-02T16:00:00Z,28.8332,-90.8320,10.0,3.119,22.0,,'11111222,11111222,99999999' 
WAVCIS,ioos:station:WAVCIS:CSI15:1,2008-08-02T17:00:00Z,28.8332,-90.8320,10.0,2.05,275.0,,'11111222,11111222,99999999' 
WAVCIS,ioos:station:WAVCIS:CSI15:1,2008-08-02T18:00:00Z,28.8332,-90.8320,10.0,5.654,228.0,,'11111222,11111222,99999999' 
WAVCIS,ioos:station:WAVCIS:CSI15:1,2008-08-02T19:00:00Z,28.8332,-90.8320,10.0,3.134,227.0,,'11111222,11111222,99999999' 
WAVCIS,ioos:station:WAVCIS:CSI15:1,2008-08-02T20:00:00Z,28.8332,-90.8320,10.0,4.18,221.0,,'11111222,11111222,99999999' 
WAVCIS,ioos:station:WAVCIS:CSI15:1,2008-08-02T21:00:00Z,28.8332,-90.8320,10.0,5.938,198.0,,'11111222,11111222,99999999' 
WAVCIS,ioos:station:WAVCIS:CSI15:1,2008-08-02T22:00:00Z,28.8332,-90.8320,10.0,5.783,201.0,,'11111222,11111222,99999999' 
WAVCIS,ioos:station:WAVCIS:CSI15:1,2008-08-02T23:00:00Z,28.8332,-90.8320,10.0,6.446,202.0,,'11111222,11111222,99999999' 
WAVCIS,ioos:station:WAVCIS:CSI15:1,2008-08-03T00:00:00Z,28.8332,-90.8320,10.0,7.04,208.0,,'11111222,11111222,99999999' 
WAVCIS,ioos:station:WAVCIS:CSI15:1,2008-08-03T01:00:00Z,28.8332,-90.8320,10.0,7.28,211.0,,'11111222,11111222,99999999' 
WAVCIS,ioos:station:WAVCIS:CSI15:1,2008-08-03T02:00:00Z,28.8332,-90.8320,10.0,7.63,221.0,,'11111222,11111222,99999999' 
WAVCIS,ioos:station:WAVCIS:CSI15:1,2008-08-03T03:00:00Z,28.8332,-90.8320,10.0,7.54,215.0,,'11111222,11111222,99999999' 
WAVCIS,ioos:station:WAVCIS:CSI15:1,2008-08-03T04:00:00Z,28.8332,-90.8320,10.0,7.27,214.0,,'11111222,11111222,99999999' 
WAVCIS,ioos:station:WAVCIS:CSI15:1,2008-08-03T05:00:00Z,28.8332,-90.8320,10.0,7.25,228.0,,'11111222,11111222,99999999' 
WAVCIS,ioos:station:WAVCIS:CSI15:1,2008-08-03T06:00:00Z,28.8332,-90.8320,10.0,6.188,241.0,,'11111222,11111222,99999999' 
WAVCIS,ioos:station:WAVCIS:CSI15:1,2008-08-03T07:00:00Z,28.8332,-90.8320,10.0,6.207,249.0,,'11111222,11111222,99999999' 
WAVCIS,ioos:station:WAVCIS:CSI15:1,2008-08-03T08:00:00Z,28.8332,-90.8320,10.0,6.163,258.0,,'11111222,11111222,99999999' 
WAVCIS,ioos:station:WAVCIS:CSI15:1,2008-08-03T09:00:00Z,28.8332,-90.8320,10.0,6.87,264.0,,'11111222,11111222,99999999' 
WAVCIS,ioos:station:WAVCIS:CSI15:1,2008-08-03T10:00:00Z,28.8332,-90.8320,10.0,8.78,255.0,,'11111222,11111222,99999999' 
WAVCIS,ioos:station:WAVCIS:CSI15:1,2008-08-03T11:00:00Z,28.8332,-90.8320,10.0,8.15,261.0,,'11111222,11111222,99999999' 
WAVCIS,ioos:station:WAVCIS:CSI15:1,2008-08-03T12:00:00Z,28.8332,-90.8320,10.0,8.37,254.0,,'11111222,11111222,99999999' 
WAVCIS,ioos:station:WAVCIS:CSI15:1,2008-08-03T13:00:00Z,28.8332,-90.8320,10.0,7.38,253.0,,'11111222,11111222,99999999' 
WAVCIS,ioos:station:WAVCIS:CSI15:1,2008-08-03T14:00:00Z,28.8332,-90.8320,10.0,4.557,281.0,,'11111222,11111222,99999999' 
WAVCIS,ioos:station:WAVCIS:CSI15:1,2008-08-03T15:00:00Z,28.8332,-90.8320,10.0,3.987,338.0,,'11111222,11111222,99999999' 
WAVCIS,ioos:station:WAVCIS:CSI15:1,2008-08-03T16:00:00Z,28.8332,-90.8320,10.0,2.984,314.0,,'11111222,11111222,99999999' 
WAVCIS,ioos:station:WAVCIS:CSI15:1,2008-08-03T17:00:00Z,28.8332,-90.8320,10.0,1.791,359.0,,'11111222,11111222,99999999' 
WAVCIS,ioos:station:WAVCIS:CSI15:1,2008-08-03T18:00:00Z,28.8332,-90.8320,10.0,0.386,98.0,,'11111222,11111222,99999999' 
WAVCIS,ioos:station:WAVCIS:CSI15:1,2008-08-03T19:00:00Z,28.8332,-90.8320,10.0,0.878,31.0,,'11111222,11111222,99999999' 
WAVCIS,ioos:station:WAVCIS:CSI15:1,2008-08-03T20:00:00Z,28.8332,-90.8320,10.0,1.576,280.0,,'11111222,11111222,99999999' 
WAVCIS,ioos:station:WAVCIS:CSI15:1,2008-08-03T21:00:00Z,28.8332,-90.8320,10.0,3.192,281.0,,'11111222,11111222,99999999' 
WAVCIS,ioos:station:WAVCIS:CSI15:1,2008-08-03T22:00:00Z,28.8332,-90.8320,10.0,3.225,269.0,,'11111222,11111222,99999999' 
WAVCIS,ioos:station:WAVCIS:CSI15:1,2008-08-03T23:00:00Z,28.8332,-90.8320,10.0,3.606,273.0,,'11111222,11111222,99999999' 
WAVCIS,ioos:station:WAVCIS:CSI15:1,2008-08-04T00:00:00Z,28.8332,-90.8320,10.0,3.138,313.0,,'11111222,11111222,99999999' 
WAVCIS,ioos:station:WAVCIS:CSI15:1,2008-08-04T01:00:00Z,28.8332,-90.8320,10.0,6.211,359.0,,'11111222,11111222,99999999' 
WAVCIS,ioos:station:WAVCIS:CSI15:1,2008-08-04T02:00:00Z,28.8332,-90.8320,10.0,6.76,8.0,,'11111222,11111222,99999999' 
WAVCIS,ioos:station:WAVCIS:CSI15:1,2008-08-04T03:00:00Z,28.8332,-90.8320,10.0,8.23,27.0,,'11111222,11111222,99999999' 
WAVCIS,ioos:station:WAVCIS:CSI15:1,2008-08-04T04:00:00Z,28.8332,-90.8320,10.0,8.74,21.0,,'11111222,11111222,99999999' 
WAVCIS,ioos:station:WAVCIS:CSI15:1,2008-08-04T05:00:00Z,28.8332,-90.8320,10.0,9.02,25.0,,'11111222,11111222,99999999' 
WAVCIS,ioos:station:WAVCIS:CSI15:1,2008-08-04T06:00:00Z,28.8332,-90.8320,10.0,10.58,25.0,,'11111222,11111222,99999999' 
WAVCIS,ioos:station:WAVCIS:CSI15:1,2008-08-04T07:00:00Z,28.8332,-90.8320,10.0,10.76,36.0,,'11111222,11111222,99999999' 
WAVCIS,ioos:station:WAVCIS:CSI15:1,2008-08-04T08:00:00Z,28.8332,-90.8320,10.0,12.09,28.0,,'11111222,11111222,99999999' 
WAVCIS,ioos:station:WAVCIS:CSI15:1,2008-08-04T09:00:00Z,28.8332,-90.8320,10.0,10.43,24.0,,'11111222,11111222,99999999' 
WAVCIS,ioos:station:WAVCIS:CSI15:1,2008-08-04T10:00:00Z,28.8332,-90.8320,10.0,12.0,29.0,,'11111222,11111222,99999999' 
WAVCIS,ioos:station:WAVCIS:CSI15:1,2008-08-04T11:00:00Z,28.8332,-90.8320,10.0,12.73,35.0,,'11111222,11111222,99999999' 
WAVCIS,ioos:station:WAVCIS:CSI15:1,2008-08-04T12:00:00Z,28.8332,-90.8320,10.0,11.31,33.0,,'11111222,11111222,99999999' 
WAVCIS,ioos:station:WAVCIS:CSI15:1,2008-08-04T13:00:00Z,28.8332,-90.8320,10.0,12.55,28.0,,'11111222,11111222,99999999' 
WAVCIS,ioos:station:WAVCIS:CSI15:1,2008-08-04T14:00:00Z,28.8332,-90.8320,10.0,12.44,37.0,,'11111222,11111222,99999999' 
WAVCIS,ioos:station:WAVCIS:CSI15:1,2008-08-04T15:00:00Z,28.8332,-90.8320,10.0,13.81,38.0,,'11111222,11111222,99999999' 
WAVCIS,ioos:station:WAVCIS:CSI15:1,2008-08-04T16:00:00Z,28.8332,-90.8320,10.0,14.43,69.0,,'11111222,11111222,99999999' 
WAVCIS,ioos:station:WAVCIS:CSI15:1,2008-08-04T17:00:00Z,28.8332,-90.8320,10.0,18.14,69.0,,'11111222,11111222,99999999' 
WAVCIS,ioos:station:WAVCIS:CSI15:1,2008-08-04T18:00:00Z,28.8332,-90.8320,10.0,18.84,87.0,,'11111222,11111222,99999999' 
WAVCIS,ioos:station:WAVCIS:CSI15:1,2008-08-04T19:00:00Z,28.8332,-90.8320,10.0,18.11,93.0,,'11111222,11111222,99999999' 
WAVCIS,ioos:station:WAVCIS:CSI15:1,2008-08-04T20:00:00Z,28.8332,-90.8320,10.0,18.44,99.0,,'11111222,11111222,99999999' 
WAVCIS,ioos:station:WAVCIS:CSI15:1,2008-08-04T21:00:00Z,28.8332,-90.8320,10.0,20.75,100.0,,'11111222,11111222,99999999' 
WAVCIS,ioos:station:WAVCIS:CSI15:1,2008-08-04T22:00:00Z,28.8332,-90.8320,10.0,19.41,107.0,,'11111222,11111222,99999999' 
WAVCIS,ioos:station:WAVCIS:CSI15:1,2008-08-04T23:00:00Z,28.8332,-90.8320,10.0,20.36,98.0,,'11111222,11111222,99999999' 
WAVCIS,ioos:station:WAVCIS:CSI15:1,2008-08-05T00:00:00Z,28.8332,-90.8320,10.0,20.86,97.0,,'11111222,11111222,99999999' 
WAVCIS,ioos:station:WAVCIS:CSI15:1,2008-08-05T01:00:00Z,28.8332,-90.8320,10.0,19.34,89.0,,'11111222,11111222,99999999' 
WAVCIS,ioos:station:WAVCIS:CSI15:1,2008-08-05T02:00:00Z,28.8332,-90.8320,10.0,18.06,99.0,,'11111222,11111222,99999999' 
WAVCIS,ioos:station:WAVCIS:CSI15:1,2008-08-05T03:00:00Z,28.8332,-90.8320,10.0,18.41,99.0,,'11111222,11111222,99999999' 
WAVCIS,ioos:station:WAVCIS:CSI15:1,2008-08-05T04:00:00Z,28.8332,-90.8320,10.0,18.87,112.0,,'11111222,11111222,99999999' 
WAVCIS,ioos:station:WAVCIS:CSI15:1,2008-08-05T05:00:00Z,28.8332,-90.8320,10.0,16.27,115.0,,'11111222,11111222,99999999' 
WAVCIS,ioos:station:WAVCIS:CSI15:1,2008-08-05T06:00:00Z,28.8332,-90.8320,10.0,15.66,124.0,,'11111222,11111222,99999999' 
WAVCIS,ioos:station:WAVCIS:CSI15:1,2008-08-05T07:00:00Z,28.8332,-90.8320,10.0,15.76,129.0,,'11111222,11111222,99999999' 
WAVCIS,ioos:station:WAVCIS:CSI15:1,2008-08-05T08:00:00Z,28.8332,-90.8320,10.0,12.1,130.0,,'11111222,11111222,99999999' 
WAVCIS,ioos:station:WAVCIS:CSI15:1,2008-08-05T09:00:00Z,28.8332,-90.8320,10.0,11.55,136.0,,'11111222,11111222,99999999' 
WAVCIS,ioos:station:WAVCIS:CSI15:1,2008-08-05T10:00:00Z,28.8332,-90.8320,10.0,11.87,145.0,,'11111222,11111222,99999999' 
WAVCIS,ioos:station:WAVCIS:CSI15:1,2008-08-05T11:00:00Z,28.8332,-90.8320,10.0,11.55,144.0,,'11111222,11111222,99999999' 
WAVCIS,ioos:station:WAVCIS:CSI15:1,2008-08-05T12:00:00Z,28.8332,-90.8320,10.0,8.92,148.0,,'11111222,11111222,99999999' 
WAVCIS,ioos:station:WAVCIS:CSI15:1,2008-08-05T13:00:00Z,28.8332,-90.8320,10.0,10.03,144.0,,'11111222,11111222,99999999' 
WAVCIS,ioos:station:WAVCIS:CSI15:1,2008-08-05T14:00:00Z,28.8332,-90.8320,10.0,9.23,144.0,,'11111222,11111222,99999999' 
WAVCIS,ioos:station:WAVCIS:CSI15:1,2008-08-05T15:00:00Z,28.8332,-90.8320,10.0,8.69,155.0,,'11111222,11111222,99999999' 
WAVCIS,ioos:station:WAVCIS:CSI15:1,2008-08-05T16:00:00Z,28.8332,-90.8320,10.0,8.57,134.0,,'11111222,11111222,99999999' 
WAVCIS,ioos:station:WAVCIS:CSI15:1,2008-08-05T17:00:00Z,28.8332,-90.8320,10.0,10.67,168.0,,'11111222,11111222,99999999' 
WAVCIS,ioos:station:WAVCIS:CSI15:1,2008-08-05T18:00:00Z,28.8332,-90.8320,10.0,6.974,146.0,,'11111222,11111222,99999999' 
WAVCIS,ioos:station:WAVCIS:CSI15:1,2008-08-05T19:00:00Z,28.8332,-90.8320,10.0,7.49,137.0,,'11111222,11111222,99999999' 
WAVCIS,ioos:station:WAVCIS:CSI15:1,2008-08-05T20:00:00Z,28.8332,-90.8320,10.0,6.442,129.0,,'11111222,11111222,99999999' 
WAVCIS,ioos:station:WAVCIS:CSI15:1,2008-08-05T21:00:00Z,28.8332,-90.8320,10.0,6.368,120.0,,'11111222,11111222,99999999' 
WAVCIS,ioos:station:WAVCIS:CSI15:1,2008-08-05T22:00:00Z,28.8332,-90.8320,10.0,5.165,124.0,,'11111222,11111222,99999999' 
WAVCIS,ioos:station:WAVCIS:CSI15:1,2008-08-05T23:00:00Z,28.8332,-90.8320,10.0,6.801,139.0,,'11111222,11111222,99999999' 
WAVCIS,ioos:station:WAVCIS:CSI15:1,2008-08-06T00:00:00Z,28.8332,-90.8320,10.0,4.75,130.0,,'11111222,11111222,99999999' 
WAVCIS,ioos:station:WAVCIS:CSI15:1,2008-08-06T01:00:00Z,28.8332,-90.8320,10.0,3.886,120.0,,'11111222,11111222,99999999' 
WAVCIS,ioos:station:WAVCIS:CSI15:1,2008-08-06T02:00:00Z,28.8332,-90.8320,10.0,5.9,140.0,,'11111222,11111222,99999999' 
WAVCIS,ioos:station:WAVCIS:CSI15:1,2008-08-06T03:00:00Z,28.8332,-90.8320,10.0,6.287,133.0,,'11111222,11111222,99999999' 
WAVCIS,ioos:station:WAVCIS:CSI15:1,2008-08-06T04:00:00Z,28.8332,-90.8320,10.0,5.226,131.0,,'11111222,11111222,99999999' 
WAVCIS,ioos:station:WAVCIS:CSI15:1,2008-08-06T05:00:00Z,28.8332,-90.8320,10.0,6.188,128.0,,'11111222,11111222,99999999' 
WAVCIS,ioos:station:WAVCIS:CSI15:1,2008-08-06T06:00:00Z,28.8332,-90.8320,10.0,7.0,132.0,,'11111222,11111222,99999999' 
WAVCIS,ioos:station:WAVCIS:CSI15:1,2008-08-06T07:00:00Z,28.8332,-90.8320,10.0,6.487,134.0,,'11111222,11111222,99999999' 
WAVCIS,ioos:station:WAVCIS:CSI15:1,2008-08-06T08:00:00Z,28.8332,-90.8320,10.0,5.397,140.0,,'11111222,11111222,99999999' 
WAVCIS,ioos:station:WAVCIS:CSI15:1,2008-08-06T09:00:00Z,28.8332,-90.8320,10.0,4.599,153.0,,'11111222,11111222,99999999' 
WAVCIS,ioos:station:WAVCIS:CSI15:1,2008-08-06T10:00:00Z,28.8332,-90.8320,10.0,3.493,147.0,,'11111222,11111222,99999999' 
WAVCIS,ioos:station:WAVCIS:CSI15:1,2008-08-06T11:00:00Z,28.8332,-90.8320,10.0,3.658,146.0,,'11111222,11111222,99999999' 
WAVCIS,ioos:station:WAVCIS:CSI15:1,2008-08-06T12:00:00Z,28.8332,-90.8320,10.0,2.233,141.0,,'11111222,11111222,99999999' 
WAVCIS,ioos:station:WAVCIS:CSI15:1,2008-08-06T13:00:00Z,28.8332,-90.8320,10.0,1.852,138.0,,'11111222,11111222,99999999' 
WAVCIS,ioos:station:WAVCIS:CSI15:1,2008-08-06T14:00:00Z,28.8332,-90.8320,10.0,1.954,114.0,,'11111222,11111222,99999999' 
WAVCIS,ioos:station:WAVCIS:CSI15:1,2008-08-06T15:00:00Z,28.8332,-90.8320,10.0,1.68,104.0,,'11111222,11111222,99999999' 
WAVCIS,ioos:station:WAVCIS:CSI15:1,2008-08-06T16:00:00Z,28.8332,-90.8320,10.0,1.249,111.0,,'11111222,11111222,99999999' 
WAVCIS,ioos:station:WAVCIS:CSI15:1,2008-08-06T17:00:00Z,28.8332,-90.8320,10.0,1.426,105.0,,'11111222,11111222,99999999' 
WAVCIS,ioos:station:WAVCIS:CSI15:1,2008-08-06T18:00:00Z,28.8332,-90.8320,10.0,1.539,107.0,,'11111222,11111222,99999999' 
WAVCIS,ioos:station:WAVCIS:CSI15:1,2008-08-06T19:00:00Z,28.8332,-90.8320,10.0,1.773,83.0,,'11111222,11111222,99999999' 
WAVCIS,ioos:station:WAVCIS:CSI15:1,2008-08-06T20:00:00Z,28.8332,-90.8320,10.0,1.952,114.0,,'11111222,11111222,99999999' 
WAVCIS,ioos:station:WAVCIS:CSI15:1,2008-08-06T21:00:00Z,28.8332,-90.8320,10.0,2.214,105.0,,'11111222,11111222,99999999' 
WAVCIS,ioos:station:WAVCIS:CSI15:1,2008-08-06T22:00:00Z,28.8332,-90.8320,10.0,1.719,136.0,,'11111222,11111222,99999999' 
WAVCIS,ioos:station:WAVCIS:CSI15:1,2008-08-06T23:00:00Z,28.8332,-90.8320,10.0,1.773,166.0,,'11111222,11111222,99999999' 
WAVCIS,ioos:station:WAVCIS:CSI15:1,2008-08-07T00:00:00Z,28.8332,-90.8320,10.0,1.749,161.0,,'11111222,11111222,99999999' 
WAVCIS,ioos:station:WAVCIS:CSI15:1,2008-08-07T01:00:00Z,28.8332,-90.8320,10.0,2.0,211.0,,'11111222,11111222,99999999' 
WAVCIS,ioos:station:WAVCIS:CSI15:1,2008-08-07T02:00:00Z,28.8332,-90.8320,10.0,1.935,235.0,,'11111222,11111222,99999999' 
WAVCIS,ioos:station:WAVCIS:CSI15:1,2008-08-07T03:00:00Z,28.8332,-90.8320,10.0,2.811,201.0,,'11111222,11111222,99999999' 
WAVCIS,ioos:station:WAVCIS:CSI15:1,2008-08-07T04:00:00Z,28.8332,-90.8320,10.0,2.775,201.0,,'11111222,11111222,99999999' 
WAVCIS,ioos:station:WAVCIS:CSI15:1,2008-08-07T05:00:00Z,28.8332,-90.8320,10.0,2.511,212.0,,'11111222,11111222,99999999' 
WAVCIS,ioos:station:WAVCIS:CSI15:1,2008-08-07T06:00:00Z,28.8332,-90.8320,10.0,2.992,224.0,,'11111222,11111222,99999999' 
WAVCIS,ioos:station:WAVCIS:CSI15:1,2008-08-07T07:00:00Z,28.8332,-90.8320,10.0,3.812,215.0,,'11111222,11111222,99999999' 
WAVCIS,ioos:station:WAVCIS:CSI15:1,2008-08-07T08:00:00Z,28.8332,-90.8320,10.0,4.157,234.0,,'11111222,11111222,99999999' 
WAVCIS,ioos:station:WAVCIS:CSI15:1,2008-08-07T09:00:00Z,28.8332,-90.8320,10.0,4.032,235.0,,'11111222,11111222,99999999' 
WAVCIS,ioos:station:WAVCIS:CSI15:1,2008-08-07T10:00:00Z,28.8332,-90.8320,10.0,3.868,239.0,,'11111222,11111222,99999999' 
WAVCIS,ioos:station:WAVCIS:CSI15:1,2008-08-07T11:00:00Z,28.8332,-90.8320,10.0,4.099,260.0,,'11111222,11111222,99999999' 
WAVCIS,ioos:station:WAVCIS:CSI15:1,2008-08-07T12:00:00Z,28.8332,-90.8320,10.0,4.453,268.0,,'11111222,11111222,99999999' 
WAVCIS,ioos:station:WAVCIS:CSI15:1,2008-08-07T13:00:00Z,28.8332,-90.8320,10.0,4.629,293.0,,'11111222,11111222,99999999' 
WAVCIS,ioos:station:WAVCIS:CSI15:1,2008-08-07T14:00:00Z,28.8332,-90.8320,10.0,3.527,297.0,,'11111222,11111222,99999999' 
WAVCIS,ioos:station:WAVCIS:CSI15:1,2008-08-07T15:00:00Z,28.8332,-90.8320,10.0,3.962,318.0,,'11111222,11111222,99999999' 
WAVCIS,ioos:station:WAVCIS:CSI15:1,2008-08-07T16:00:00Z,28.8332,-90.8320,10.0,4.127,303.0,,'11111222,11111222,99999999' 
WAVCIS,ioos:station:WAVCIS:CSI15:1,2008-08-07T17:00:00Z,28.8332,-90.8320,10.0,3.043,302.0,,'11111222,11111222,99999999' 
WAVCIS,ioos:station:WAVCIS:CSI15:1,2008-08-07T18:00:00Z,28.8332,-90.8320,10.0,2.204,293.0,,'11111222,11111222,99999999' 
WAVCIS,ioos:station:WAVCIS:CSI15:1,2008-08-07T19:00:00Z,28.8332,-90.8320,10.0,3.691,264.0,,'11111222,11111222,99999999' 
WAVCIS,ioos:station:WAVCIS:CSI15:1,2008-08-07T20:00:00Z,28.8332,-90.8320,10.0,4.214,252.0,,'11111222,11111222,99999999' 
WAVCIS,ioos:station:WAVCIS:CSI15:1,2008-08-07T21:00:00Z,28.8332,-90.8320,10.0,4.1,243.0,,'11111222,11111222,99999999' 
WAVCIS,ioos:station:WAVCIS:CSI15:1,2008-08-07T22:00:00Z,28.8332,-90.8320,10.0,4.826,232.0,,'11111222,11111222,99999999' 
WAVCIS,ioos:station:WAVCIS:CSI15:1,2008-08-07T23:00:00Z,28.8332,-90.8320,10.0,5.257,232.0,,'11111222,11111222,99999999' 
WAVCIS,ioos:station:WAVCIS:CSI15:1,2008-08-08T00:00:00Z,28.8332,-90.8320,10.0,4.57,230.0,,'11111222,11111222,99999999' 
WAVCIS,ioos:station:WAVCIS:CSI15:1,2008-08-08T01:00:00Z,28.8332,-90.8320,10.0,4.717,229.0,,'11111222,11111222,99999999' 
WAVCIS,ioos:station:WAVCIS:CSI15:1,2008-08-08T02:00:00Z,28.8332,-90.8320,10.0,5.767,224.0,,'11111222,11111222,99999999' 
WAVCIS,ioos:station:WAVCIS:CSI15:1,2008-08-08T03:00:00Z,28.8332,-90.8320,10.0,5.906,222.0,,'11111222,11111222,99999999' 
WAVCIS,ioos:station:WAVCIS:CSI15:1,2008-08-08T04:00:00Z,28.8332,-90.8320,10.0,5.332,234.0,,'11111222,11111222,99999999' 
WAVCIS,ioos:station:WAVCIS:CSI15:1,2008-08-08T05:00:00Z,28.8332,-90.8320,10.0,5.795,224.0,,'11111222,11111222,99999999' 
WAVCIS,ioos:station:WAVCIS:CSI15:1,2008-08-08T06:00:00Z,28.8332,-90.8320,10.0,6.711,241.0,,'11111222,11111222,99999999' 
WAVCIS,ioos:station:WAVCIS:CSI15:1,2008-08-08T07:00:00Z,28.8332,-90.8320,10.0,5.141,226.0,,'11111222,11111222,99999999' 
WAVCIS,ioos:station:WAVCIS:CSI15:1,2008-08-08T08:00:00Z,28.8332,-90.8320,10.0,4.224,242.0,,'11111222,11111222,99999999' 
WAVCIS,ioos:station:WAVCIS:CSI15:1,2008-08-08T09:00:00Z,28.8332,-90.8320,10.0,5.906,239.0,,'11111222,11111222,99999999' 
WAVCIS,ioos:station:WAVCIS:CSI15:1,2008-08-08T10:00:00Z,28.8332,-90.8320,10.0,7.31,240.0,,'11111222,11111222,99999999' 
WAVCIS,ioos:station:WAVCIS:CSI15:1,2008-08-08T11:00:00Z,28.8332,-90.8320,10.0,6.7,251.0,,'11111222,11111222,99999999' 
WAVCIS,ioos:station:WAVCIS:CSI15:1,2008-08-08T12:00:00Z,28.8332,-90.8320,10.0,4.248,36.0,,'11111222,11111222,99999999' 
WAVCIS,ioos:station:WAVCIS:CSI15:1,2008-08-08T13:00:00Z,28.8332,-90.8320,10.0,10.04,77.0,,'11111222,11111222,99999999' 
WAVCIS,ioos:station:WAVCIS:CSI15:1,2008-08-08T14:00:00Z,28.8332,-90.8320,10.0,11.28,3.0,,'11111222,11111222,99999999' 
WAVCIS,ioos:station:WAVCIS:CSI15:1,2008-08-08T15:00:00Z,28.8332,-90.8320,10.0,4.904,345.0,,'11111222,11111222,99999999' 
WAVCIS,ioos:station:WAVCIS:CSI15:1,2008-08-08T16:00:00Z,28.8332,-90.8320,10.0,4.794,318.0,,'11111222,11111222,99999999' 
WAVCIS,ioos:station:WAVCIS:CSI15:1,2008-08-08T17:00:00Z,28.8332,-90.8320,10.0,5.621,7.0,,'11111222,11111222,99999999' 
WAVCIS,ioos:station:WAVCIS:CSI15:1,2008-08-08T18:00:00Z,28.8332,-90.8320,10.0,1.88,281.0,,'11111222,11111222,99999999' 
WAVCIS,ioos:station:WAVCIS:CSI15:1,2008-08-08T19:00:00Z,28.8332,-90.8320,10.0,6.41,288.0,,'11111222,11111222,99999999' 
WAVCIS,ioos:station:WAVCIS:CSI15:1,2008-08-08T20:00:00Z,28.8332,-90.8320,10.0,9.26,304.0,,'11111222,11111222,99999999' 
WAVCIS,ioos:station:WAVCIS:CSI15:1,2008-08-08T21:00:00Z,28.8332,-90.8320,10.0,13.84,285.0,,'11111222,11111222,99999999' 
WAVCIS,ioos:station:WAVCIS:CSI15:1,2008-08-08T22:00:00Z,28.8332,-90.8320,10.0,9.27,265.0,,'11111222,11111222,99999999' 
WAVCIS,ioos:station:WAVCIS:CSI15:1,2008-08-08T23:00:00Z,28.8332,-90.8320,10.0,6.439,277.0,,'11111222,11111222,99999999' 
WAVCIS,ioos:station:WAVCIS:CSI15:1,2008-08-09T00:00:00Z,28.8332,-90.8320,10.0,5.095,302.0,,'11111222,11111222,99999999' 
WAVCIS,ioos:station:WAVCIS:CSI15:1,2008-08-09T01:00:00Z,28.8332,-90.8320,10.0,5.179,317.0,,'11111222,11111222,99999999' 
WAVCIS,ioos:station:WAVCIS:CSI15:1,2008-08-09T02:00:00Z,28.8332,-90.8320,10.0,3.892,330.0,,'11111222,11111222,99999999' 
WAVCIS,ioos:station:WAVCIS:CSI15:1,2008-08-09T03:00:00Z,28.8332,-90.8320,10.0,2.079,348.0,,'11111222,11111222,99999999' 
WAVCIS,ioos:station:WAVCIS:CSI15:1,2008-08-09T04:00:00Z,28.8332,-90.8320,10.0,1.464,351.0,,'11111222,11111222,99999999' 
WAVCIS,ioos:station:WAVCIS:CSI15:1,2008-08-09T05:00:00Z,28.8332,-90.8320,10.0,1.436,322.0,,'11111222,11111222,99999999' 